Location: The Saddle
(36.8333°N, 80.3417°W)
Time: 12:56:24
(UTC-04:00)

ISS - Visible Passes

Search period start: 16 July 2025 00:00
Search period end: 26 July 2025 00:00
Orbit: 413 x 417 km, 51.6° (Epoch: 16 July)

Date Brightness Start Highest point End Pass type
(mag) Time Alt. Az. Time Alt. Az. Time Alt. Az.
17 Jul -0.4 00:35:58 10° NNW 00:36:31 13° NNW 00:36:31 13° NNW visible
17 Jul -0.9 23:47:28 10° NNW 23:49:02 14° NNE 23:49:02 14° NNE visible
18 Jul -0.8 22:59:18 10° N 23:00:16 11° NNE 23:01:14 10° NE visible
19 Jul -0.3 00:34:21 10° NW 00:34:26 10° NW 00:34:26 10° NW visible
19 Jul -1.1 23:45:37 10° NNW 23:47:00 20° NNW 23:47:00 20° NNW visible
20 Jul -1.6 22:56:58 10° NNW 22:59:28 19° NNE 22:59:38 19° NNE visible
21 Jul -1.1 22:08:28 10° N 22:10:17 14° NNE 22:12:06 10° ENE visible
21 Jul -1.0 23:44:05 10° NW 23:45:07 19° NW 23:45:07 19° NW visible
22 Jul -0.9 21:20:28 10° N 21:21:01 10° NNE 21:21:32 10° NNE visible
22 Jul -2.5 22:55:12 10° NW 22:57:48 39° N 22:57:48 39° N visible
23 Jul -2.2 22:06:25 10° NNW 22:09:18 26° NNE 22:10:31 21° ENE visible
23 Jul -0.7 23:43:02 10° WNW 23:43:22 12° WNW 23:43:22 12° WNW visible
24 Jul -1.6 21:17:45 10° NNW 21:20:08 18° NNE 21:22:30 10° ENE visible
24 Jul -2.5 22:53:47 10° WNW 22:56:07 39° WNW 22:56:07 39° WNW visible
25 Jul -3.8 22:04:44 10° NW 22:08:04 71° NE 22:08:55 45° ESE visible
